Weather History for Kirksville, MO

Change the Weather History Date:

Friday, December 14, 2012

  Actual Average Record
Temperature  
Mean Temperature 39 °F 29 °F  
Max Temperature 51 °F 37 °F 64 °F (1975)
Min Temperature 27 °F 21 °F -5 °F (1989)
Degree Days  
Heating Degree Days 26 36  
Month to date heating degree days 340 478  
Since 1 July heating degree days 1610 1699  
Cooling Degree Days 0 0  
Month to date cooling degree days 0 0  
Year to date cooling degree days 1321 939  
Moisture  
Dew Point 30 °F    
Average Humidity 64    
Maximum Humidity 89    
Minimum Humidity 38    
Precipitation  
Precipitation 0.04 in 0.06 in 2.01 in (1975)
Month to date precipitation 0.19 0.89  
Year to date precipitation 26.61 38.45  
Sea Level Pressure  
Sea Level Pressure 30.03 in    
Wind  
Wind Speed 9 mph (South)    
Max Wind Speed 18 mph    
Max Gust Speed 23 mph    
Visibility 10 miles    
Events Rain    
T = Trace of Precipitation, MM = Missing Value Source: NWS Daily Summary

Daily Weather History Graph

Daily Weather History Graph

Search for Another Location

Airport:

Trip Planner

Search our weather history database for the weather conditions in past years. The results will help you decide how hot, cold, wet, or windy it might be!

Date:

Astronomy

Dec. 14, 2012 Rise Set
Actual Time 7:24 AM CST 4:45 PM CST
Civil Twilight 6:54 AM CST 5:16 PM CST
Nautical Twilight 6:20 AM CST 5:50 PM CST
Astronomical Twilight 5:47 AM CST 6:23 PM CST
Moon 8:30 AM CST (12/14) 6:38 PM CST (12/14)
Length of Visible Light 10h 21m
Length of Day
9h 20m
Waxing Crescent, 3% of the Moon is Illuminated
Dec 14
Waxing Crescent
Dec 19
First Quarter
Dec 28
Full
Jan 4
Last Quarter
Jan 11
New

Hourly Weather History & Observations

Time (CST) Temp. Windchill Dew Point Humidity Pressure Visibility Wind Dir Wind Speed Gust Speed Precip Events Conditions
12:55 AM 35.1 °F 32.2 °F 23.0 °F 61% 30.15 in 10.0 mi South 3.5 mph - N/A   Clear
1:55 AM 30.9 °F 24.3 °F 23.0 °F 72% 30.15 in 10.0 mi South 6.9 mph - N/A   Clear
2:55 AM 33.1 °F 28.7 °F 23.0 °F 66% 30.16 in 10.0 mi SSW 4.6 mph - N/A   Clear
3:55 AM 30.0 °F 23.2 °F 23.0 °F 75% 30.15 in 10.0 mi South 6.9 mph - N/A   Clear
4:55 AM 30.2 °F 23.4 °F 23.0 °F 75% 30.11 in 10.0 mi South 6.9 mph - N/A   Clear
5:55 AM 30.9 °F 26.2 °F 23.0 °F 72% 30.14 in 10.0 mi South 4.6 mph - N/A   Clear
6:55 AM 32.0 °F 25.6 °F 23.0 °F 69% 30.16 in 10.0 mi SSW 6.9 mph - N/A   Clear
7:55 AM 32.0 °F 26.4 °F 24.1 °F 73% 30.16 in 10.0 mi South 5.8 mph - N/A   Clear
8:55 AM 39.0 °F 32.8 °F 26.1 °F 60% 30.16 in 10.0 mi South 9.2 mph - N/A   Clear
9:55 AM 44.1 °F 39.0 °F 26.1 °F 49% 30.14 in 10.0 mi South 9.2 mph - N/A   Clear
10:55 AM 48.0 °F - 26.1 °F 42% 30.12 in 10.0 mi SSW 13.8 mph - N/A   Clear
11:55 AM 51.1 °F - 26.1 °F 38% 30.09 in 10.0 mi SSW 15.0 mph 20.7 mph N/A   Clear
12:55 PM 51.1 °F - 28.0 °F 41% 30.06 in 10.0 mi South 11.5 mph - N/A   Clear
1:55 PM 50.0 °F - 28.0 °F 43% 30.03 in 10.0 mi SSW 11.5 mph - N/A   Clear
2:55 PM 51.1 °F - 28.9 °F 43% 30.00 in 10.0 mi South 10.4 mph - N/A   Clear
3:55 PM 50.0 °F - 28.4 °F 43% 29.97 in 10.0 mi South 8.1 mph - N/A   Overcast
4:55 PM 48.9 °F - 28.9 °F 46% 29.98 in 10.0 mi SSE 9.2 mph - N/A   Overcast
5:55 PM 48.9 °F - 28.9 °F 46% 29.98 in 10.0 mi SSE 11.5 mph - N/A   Overcast
6:24 PM 46.4 °F 41.1 °F 33.8 °F 62% 29.95 in 10.0 mi SSE 11.5 mph - 0.00 in   Overcast
6:55 PM 44.1 °F 38.1 °F 37.0 °F 76% 29.99 in 9.0 mi South 11.5 mph - 0.00 in Rain Light Rain
7:42 PM 42.8 °F 37.5 °F 39.2 °F 87% 29.94 in 10.0 mi SSE 9.2 mph - 0.01 in   Overcast
7:55 PM 43.0 °F 37.2 °F 39.9 °F 89% 29.97 in 7.0 mi SSE 10.4 mph - 0.01 in Rain Light Rain
8:55 PM 43.0 °F 38.8 °F 39.9 °F 89% 29.94 in 10.0 mi SE 6.9 mph - 0.01 in Rain Light Rain
9:55 PM 44.1 °F 38.6 °F 37.0 °F 76% 29.90 in 9.0 mi SE 10.4 mph - 0.01 in Rain Light Rain
10:31 PM 42.8 °F 38.0 °F 37.4 °F 81% 29.87 in 10.0 mi SSE 8.1 mph - 0.01 in   Overcast
10:55 PM 43.0 °F 37.2 °F 37.0 °F 80% 29.88 in 10.0 mi SE 10.4 mph - 0.01 in   Overcast
11:40 PM 42.8 °F 36.2 °F 37.4 °F 81% 29.84 in 10.0 mi SSE 12.7 mph - N/A   Overcast
11:55 PM 44.1 °F 36.8 °F 36.0 °F 73% 29.85 in 10.0 mi SSE 16.1 mph - N/A   Overcast